Regional Weather Roundup
Issued by NWS

Home | Current Version | Previous Version | Text Only | Print | Product List | Glossary On
Versions: 1 2 3 4 5 6 7 8 9 10 11 12 13 14 15 16 17 18 19 20 21 22 23 24 25 26 27
000
ASUS45 KBOI 180610
RWRID

IDAHO REGIONAL WEATHER ROUNDUP
NATIONAL WEATHER SERVICE BOISE ID
1200 AM MDT WED OCT 18 2017

NOTE: "FAIR" INDICATES FEW OR NO CLOUDS BELOW 12000 FEET
WITH NO SIGNIFICANT WEATHER AND/OR OBSTRUCTIONS TO VISIBILITY

IDZ012-014-180700-
SOUTHWEST IDAHO


CITY           SKY/WX    TMP DP  RH WIND       PRES   REMARKS
BOISE          CLEAR     44  31  60 S3        30.12S
CALDWELL       CLEAR     42  34  73 CALM      30.13R
MOUNTAIN HOME  CLEAR     42  27  56 NW3       30.12R
$$

IDZ016-017-180700-
SOUTHCENTRAL IDAHO


CITY           SKY/WX    TMP DP  RH WIND       PRES   REMARKS
BURLEY         CLEAR     40  25  55 CALM      30.14R
JEROME         CLEAR     52  25  35 S3        30.15R
TWIN FALLS     CLEAR     46  23  40 S12       30.15R
$$

IDZ019>023-180700-
SOUTHEAST IDAHO


CITY           SKY/WX    TMP DP  RH WIND       PRES   REMARKS
IDAHO FALLS    CLEAR     45  28  51 SW12      30.12R
POCATELLO      CLEAR     49  23  36 S9        30.14S
REXBURG        CLOUDY    48  24  39 S7        30.10R
$$

IDZ006-010-011-018-031-032-180700-
CENTRAL IDAHO MOUNTAINS


CITY           SKY/WX    TMP DP  RH WIND       PRES   REMARKS
MCCALL         CLEAR     35  28  75 CALM      30.15R
HAILEY         CLEAR     41  25  52 NW10      30.18R
STANLEY          N/A     33  23  66 SE5       30.22S WCI  29
SALMON         CLEAR     35  27  72 N5        30.06S WCI  31
CHALLIS        CLEAR     46  22  38 CALM      30.12R
$$

IDZ002-004-006-007-026-180700-
NORTHERN IDAHO


CITY           SKY/WX    TMP DP  RH WIND       PRES   REMARKS
LEWISTON       CLOUDY    57  40  52 SW6       30.09S
LOWELL           N/A     47  45  93 CALM      30.12R
COEUR D`ALENE  CLOUDY    47  23  38 W5        30.06R
MULLAN PASS    MOCLDY    35  16  45 SW12G21   30.03S WCI  27
$$




USA.gov is the U.S. government's official web portal to all federal, state and local government web resources and services.